Theta_e
335 338 340 340 344 342 341 341 337 337 338 335 334 339 342 341 348 349 334 330 336 337 335 331 330 334 336 336 334 334 335 336 337 336 334 333 331 330 329 329 329 328 328 327 326 325 325 323 321
331 338 338 339 344 344 336 337 339 337 337 334 337 338 343 342 337 335 333 329 336 336 335 333 329 334 336 336 334 335 335 337 337 337 335 333 332 331 331 330 330 329 328 328 327 326 322 319 319
329 333 337 340 342 340 339 336 336 339 336 337 341 341 342 338 334 334 331 330 336 335 335 333 328 332 336 336 336 337 337 336 334 332 328 327 328 322 326 329 327 327 329 329 328 325 321 321 321
327 330 333 340 342 335 339 337 338 338 337 338 339 344 338 333 333 334 328 330 334 334 334 329 326 331 332 335 335 333 330 328 326 323 323 326 322 317 316 324 323 328 328 326 329 325 322 321 322
328 330 339 339 337 335 338 337 337 338 336 338 339 343 336 336 334 330 328 330 331 328 327 326 326 333 333 331 327 325 322 321 321 323 324 320 316 315 315 316 319 321 319 320 321 321 322 322 322
331 330 339 341 337 334 336 336 337 336 336 338 342 341 340 336 332 327 328 331 329 332 329 327 327 332 331 328 326 321 320 320 318 317 316 316 317 319 320 320 321 322 322 322 323 323 323 323 323
332 333 335 336 335 338 337 333 336 336 337 339 338 343 338 336 330 327 330 332 330 335 330 326 325 327 331 329 321 324 322 319 317 318 318 319 319 320 320 321 322 322 323 324 325 324 324 324 324
330 332 334 333 336 338 334 333 334 334 338 336 335 344 340 335 329 326 331 332 330 335 332 331 332 334 331 321 323 327 326 322 321 321 322 322 326 327 327 328 327 324 325 325 325 324 324 324 324
329 333 334 333 335 336 332 332 330 330 335 336 334 337 336 335 329 328 331 333 330 331 331 331 330 327 328 325 323 327 329 329 328 325 324 329 330 330 330 329 322 321 322 323 325 326 327 328 329
332 334 332 328 330 334 331 330 331 332 335 336 337 337 335 334 330 329 331 333 334 333 332 330 330 328 330 332 327 331 330 330 330 331 332 331 330 330 326 328 328 328 328 329 330 331 331 331 331
331 332 329 329 329 328 329 330 329 331 335 334 338 338 334 332 330 329 330 330 331 333 334 335 333 330 331 332 331 332 332 333 332 330 333 332 330 331 331 330 330 331 332 332 333 332 333 332 332
333 330 330 330 328 329 329 328 329 328 330 329 335 337 335 332 330 329 328 330 331 332 332 332 332 331 331 331 333 333 332 328 326 327 332 331 331 332 333 332 333 333 333 333 333 333 333 332 331
332 331 330 328 327 327 328 329 328 328 327 329 336 336 336 332 331 329 328 329 331 332 332 332 332 331 332 332 331 331 331 329 332 332 332 331 333 333 334 334 334 333 333 334 332 332 331 330 329
330 330 330 328 328 328 329 329 328 327 328 335 337 335 335 334 332 331 330 328 329 329 330 330 331 331 331 330 328 328 328 331 332 333 334 334 334 334 334 333 333 333 333 332 331 330 330 327 327
331 332 331 330 329 329 328 330 329 331 330 335 336 335 335 333 334 332 332 329 328 328 328 329 330 329 328 327 327 331 333 334 334 335 334 334 333 333 333 333 333 332 329 328 326 325 325 324 321
333 332 335 331 329 329 329 332 328 332 331 334 335 335 335 334 334 334 334 332 329 327 327 328 327 327 327 329 331 333 334 334 334 334 334 332 331 331 332 331 328 325 325 323 321 320 319 318 318
332 335 334 331 329 330 329 331 328 332 333 334 335 334 334 335 335 335 335 333 329 329 327 327 327 328 331 333 334 333 334 333 333 331 328 326 325 325 325 323 321 320 319 317 315 315 315 316 314
328 332 332 332 330 330 329 330 329 331 333 334 335 334 334 334 334 335 336 333 332 331 330 329 330 332 334 334 334 334 332 330 328 324 322 321 320 320 320 318 316 315 313 311 310 312 313 313 311
328 329 332 331 331 331 330 330 328 331 332 334 337 335 334 333 333 336 335 334 334 332 331 332 334 335 336 335 334 333 328 324 322 319 318 318 317 317 316 313 311 311 308 307 305 304 307 309 307
329 332 331 329 329 330 330 330 328 331 332 333 334 336 335 335 334 336 335 335 334 335 335 334 335 335 336 335 334 332 325 320 316 313 310 310 310 309 308 306 305 306 304 301 301 302 302 305 305
323 327 332 332 331 329 329 331 330 328 329 331 332 333 333 334 335 334 333 334 334 335 335 334 334 335 335 333 333 326 321 315 310 307 306 304 304 303 303 302 301 300 300 299 300 299 300 301 301
320 323 325 328 332 333 329 337 330 328 327 330 333 334 333 333 334 334 333 331 328 324 325 325 324 326 329 330 328 325 317 313 307 305 303 302 301 300 299 299 298 298 297 297 297 297 298 298 299
326 323 325 325 329 329 332 335 329 328 328 328 329 334 334 334 332 331 328 320 317 317 316 316 317 319 321 324 323 319 312 308 305 302 300 298 297 297 297 297 296 296 296 296 296 296 295 296 296
325 326 324 324 325 328 328 333 332 329 327 326 326 332 334 332 330 326 317 314 313 312 311 310 311 312 314 316 315 313 309 305 303 301 299 298 297 296 296 295 295 294 294 294 293 293 292 293 292
326 326 327 328 327 332 327 332 330 328 326 324 326 331 332 329 321 315 313 311 310 308 307 306 306 305 307 308 307 306 305 303 301 300 298 297 297 295 294 294 293 292 292 292 291 290 290 291 289
327 324 328 333 333 330 326 329 330 324 318 317 323 330 327 322 318 316 312 309 306 304 303 302 301 301 303 303 301 301 299 298 298 298 297 295 294 294 293 292 291 290 290 290 288 289 288 288 288
326 328 321 323 320 328 329 327 324 321 319 319 323 322 321 318 316 311 309 306 302 301 300 299 299 298 298 297 298 297 297 296 296 296 295 295 297 294 291 290 289 289 288 289 288 287 287 287 286
323 320 326 324 329 332 330 327 329 324 321 318 320 319 316 312 310 307 304 303 301 299 298 297 298 298 297 298 298 297 297 298 301 303 300 295 292 290 289 288 288 288 288 287 287 286 286 286 285
322 324 325 325 324 330 328 325 310 323 322 317 317 317 313 309 306 304 302 300 299 298 297 298 298 298 299 301 303 305 308 309 307 299 293 291 289 288 287 287 287 287 287 286 286 285 285 285 284
316 322 323 327 325 320 322 322 310 312 320 316 316 315 311 308 306 303 302 301 299 299 300 303 304 305 306 306 308 308 305 298 292 291 290 288 287 287 287 286 286 286 286 285 285 284 284 283 283
Wind_Speed
5 5 7 5 3 5 10 4 16 5 6 4 9 8 12 12 6 7 21 22 26 23 19 18 17 15 11 15 16 15 14 17 16 15 13 12 12 12 12 13 12 12 12 11 11 11 10 10 10
8 9 7 3 4 7 8 8 17 8 8 9 7 2 5 6 5 11 10 24 25 22 18 17 17 16 14 16 15 15 14 15 15 14 12 10 11 10 10 11 11 10 9 9 9 9 8 9 9
10 7 2 3 6 10 4 1 8 10 9 6 5 8 6 5 11 14 19 23 27 21 21 17 18 16 16 17 18 17 15 14 12 10 9 8 9 8 10 9 9 7 7 7 6 7 7 8 8
7 4 4 5 12 16 4 5 12 9 2 2 11 9 5 16 8 14 25 22 21 21 19 17 20 16 15 14 14 14 12 10 9 8 8 8 7 7 7 6 6 8 4 5 4 5 6 7 8
10 4 4 7 16 17 7 3 8 9 8 6 4 7 7 12 19 26 25 22 22 19 15 20 21 18 15 13 12 10 9 8 8 8 7 7 7 8 8 7 6 4 4 5 4 5 6 7 8
4 3 4 9 16 10 4 16 8 8 7 7 12 9 5 9 22 24 23 22 22 19 18 19 20 17 14 11 10 9 8 8 8 8 7 7 7 6 6 5 5 4 4 4 4 5 6 7 8
10 5 9 15 16 4 11 2 6 6 8 5 11 7 5 7 21 23 22 23 22 21 19 19 18 16 14 11 10 9 8 8 8 8 7 7 6 5 5 4 3 3 3 4 5 6 7 8 9
8 5 12 16 13 2 9 4 3 8 5 7 5 6 7 15 25 23 22 24 23 21 18 19 17 16 13 11 10 9 8 8 7 6 6 6 6 6 5 3 4 4 5 6 7 8 9 10 9
10 4 10 16 12 5 6 3 2 3 6 4 4 6 17 30 28 24 22 24 20 18 20 19 14 14 11 9 11 8 7 6 6 6 5 6 5 5 6 5 6 5 5 6 7 9 10 9 10
9 9 13 13 8 4 5 5 8 4 8 5 8 18 28 27 27 23 19 16 15 20 18 19 15 15 15 13 8 6 4 4 3 2 3 4 0 2 4 3 6 6 7 7 9 11 11 10 12
9 12 14 4 8 11 5 3 2 5 7 9 14 15 18 21 22 21 20 18 19 18 17 15 17 15 12 11 9 9 6 7 8 7 6 1 2 2 4 5 7 8 7 8 10 11 10 11 12
5 20 13 7 7 10 2 3 3 5 4 3 19 19 17 16 17 21 24 25 22 20 20 19 15 12 13 11 9 9 6 4 3 3 4 1 1 2 3 3 5 6 7 9 9 11 12 12 13
20 9 12 9 7 8 6 5 1 1 9 8 18 17 17 14 17 20 23 26 24 23 20 21 17 15 13 10 10 8 7 3 4 3 2 3 0 2 3 5 6 7 9 8 13 12 14 15 14
18 19 6 12 7 5 3 3 3 5 8 15 14 11 12 14 17 19 21 24 24 23 23 20 18 16 13 12 9 8 7 6 6 4 2 2 2 3 5 6 7 7 9 9 10 12 13 14 15
9 20 12 19 8 5 6 6 6 6 9 11 11 9 9 11 20 17 20 23 22 21 22 23 19 16 15 13 12 9 9 7 4 3 1 1 3 4 5 5 5 7 10 9 9 10 11 12 14
11 10 18 16 11 5 3 5 10 7 10 10 11 9 7 9 16 20 20 21 21 20 22 21 19 17 15 14 13 11 7 6 5 4 2 2 3 4 4 4 7 8 5 7 8 11 12 13 13
7 5 16 14 14 7 8 6 9 12 9 8 10 10 10 13 11 16 17 22 22 21 22 20 19 18 16 15 13 11 10 9 8 7 6 4 6 8 4 5 9 8 7 9 11 11 12 13 16
8 6 18 14 15 17 10 8 6 3 10 6 11 10 10 11 13 20 23 24 23 23 22 21 19 18 17 15 12 12 12 10 8 8 8 6 7 8 6 7 10 9 9 12 12 11 11 13 17
5 14 9 14 8 17 17 12 8 9 7 9 14 13 12 13 15 21 24 23 21 21 22 22 19 19 18 15 14 14 12 9 10 10 7 8 8 8 8 8 9 10 12 12 13 14 13 15 20
11 11 19 9 7 2 12 12 10 9 11 9 9 13 14 13 14 16 23 23 21 19 19 20 19 18 16 14 14 17 16 11 11 11 12 11 11 10 11 10 12 10 10 13 15 16 15 10 18
6 4 6 4 7 3 6 13 17 7 7 9 6 3 10 14 15 12 15 18 18 17 16 15 17 16 13 17 21 22 16 15 14 12 13 12 12 13 12 13 12 13 13 14 14 15 15 13 12
2 1 3 3 14 10 7 6 14 14 8 9 12 7 8 9 11 11 14 14 19 17 16 15 14 13 12 13 15 15 19 19 14 14 13 14 13 14 13 13 13 12 12 13 13 13 13 13 15
4 8 5 3 2 3 4 3 11 15 14 13 11 15 12 13 9 14 13 19 18 16 17 16 15 14 15 14 14 20 23 19 17 15 16 15 14 14 14 12 12 13 14 13 12 13 14 13 11
10 6 5 4 1 3 6 2 5 12 16 13 13 14 15 17 15 14 22 23 19 18 20 20 21 20 18 18 18 19 21 21 19 16 15 13 12 12 12 12 12 13 13 12 12 11 12 11 11
5 3 2 2 2 0 1 7 6 4 8 3 16 13 11 14 16 15 13 17 17 21 22 22 23 23 21 23 23 22 22 21 19 16 14 11 10 10 11 11 12 11 10 9 10 10 12 11 12
9 8 2 1 3 3 3 4 3 5 5 6 5 17 14 14 13 13 15 19 19 21 23 22 24 25 24 26 26 23 20 20 18 14 12 11 10 11 9 8 9 8 9 8 9 10 10 10 12
4 4 2 5 1 3 3 4 5 7 5 5 11 15 13 13 11 13 18 18 19 21 22 26 29 28 27 25 23 21 20 18 16 14 11 8 6 5 6 6 7 7 8 8 8 10 10 11 11
1 6 4 3 4 3 3 3 2 7 9 8 9 12 12 12 12 12 17 18 18 21 26 28 28 28 26 24 23 21 16 13 9 5 4 2 3 3 4 5 5 6 7 7 7 10 10 9 10
3 3 2 0 1 1 4 2 3 6 12 12 9 11 13 13 13 10 14 17 19 25 28 28 28 28 25 20 16 13 10 2 3 3 4 4 5 5 5 5 4 5 6 6 6 7 8 8 9
1 3 4 2 3 0 3 1 4 6 11 13 10 14 13 13 12 11 14 16 18 24 26 24 22 19 17 15 12 10 8 7 8 7 7 6 6 5 4 4 4 4 3 5 6 6 7 7 8
Wind_Direction
330 3 305 270 255 230 239 205 249 139 144 49 47 44 97 42 26 116 144 137 131 137 149 143 141 133 122 135 141 140 140 132 119 111 98 96 91 88 85 81 78 77 73 71 68 64 59 52 43
311 287 269 271 240 246 236 133 262 101 91 93 100 98 70 79 66 112 118 140 138 142 142 149 144 135 121 127 130 129 127 127 117 113 108 103 94 91 85 80 80 75 75 69 67 61 50 39 32
333 288 256 219 238 250 258 69 115 97 117 151 104 35 53 87 128 148 141 145 133 141 148 153 142 141 129 124 123 120 117 113 111 109 103 95 91 88 101 100 87 75 73 65 61 45 34 27 21
293 215 256 251 252 244 126 291 114 120 54 356 106 84 78 123 119 129 142 144 135 140 152 155 145 144 142 130 123 121 120 115 110 103 94 92 89 87 104 115 105 102 98 58 57 31 20 13 10
297 261 252 232 254 264 125 25 155 165 150 172 184 87 93 80 116 137 143 146 132 134 150 153 150 141 140 135 129 124 120 117 110 105 103 102 99 98 97 97 94 91 61 48 32 18 9 3 0
289 234 257 248 242 251 295 175 159 185 156 121 104 108 88 124 136 143 146 142 138 139 136 147 153 148 146 144 134 127 118 116 112 109 109 112 111 107 100 90 81 69 46 27 9 358 354 352 351
256 271 258 257 246 137 264 40 178 147 133 161 124 115 105 217 149 148 149 143 139 139 145 146 149 152 147 141 135 126 118 118 118 118 118 116 108 96 82 69 54 31 11 357 349 344 342 340 339
268 269 268 254 268 174 318 192 327 150 89 69 18 141 153 197 152 153 150 136 139 141 141 139 148 151 153 150 145 133 125 124 128 123 111 98 86 52 43 39 16 351 341 336 338 338 336 338 341
292 247 234 251 249 205 197 233 248 37 118 90 48 32 129 164 152 153 149 130 142 147 147 153 153 150 151 158 157 150 141 121 105 97 77 84 57 11 3 329 329 332 340 340 347 346 348 354 0
237 210 240 242 344 110 192 269 143 152 130 103 92 88 129 158 156 154 139 136 148 158 152 162 159 158 164 162 158 132 136 88 114 105 36 43 7 253 312 318 345 356 356 358 349 351 354 351 340
233 218 229 263 56 317 164 196 338 204 169 167 152 137 151 161 161 150 144 161 170 169 166 153 163 157 163 152 150 172 168 177 193 184 164 201 259 326 329 333 344 342 343 357 339 343 330 319 329
244 219 239 261 107 289 230 57 198 247 69 48 150 146 159 164 164 163 156 163 170 172 176 174 168 168 170 167 165 167 201 192 148 104 102 249 332 313 345 333 334 330 329 331 328 329 328 328 323
212 230 215 255 149 243 327 248 286 285 120 77 123 146 162 163 165 166 159 159 171 171 173 177 173 177 177 163 167 163 168 143 109 161 198 161 89 331 331 325 337 329 328 316 328 335 328 326 336
199 217 263 232 214 221 264 271 102 202 111 116 128 154 167 165 164 161 161 157 169 173 173 174 174 174 174 175 168 168 164 163 146 153 140 15 7 341 332 338 340 338 337 341 337 333 337 342 340
198 194 231 232 189 232 219 247 202 144 144 129 142 157 179 165 163 167 163 158 170 171 170 172 174 171 173 171 166 161 163 150 145 141 61 57 357 344 343 333 337 343 339 336 335 346 337 334 343
163 184 215 208 187 208 226 243 187 162 140 148 145 144 182 164 167 162 160 160 164 166 164 165 169 173 170 168 164 162 164 148 139 135 147 69 54 42 25 13 343 29 17 353 5 1 351 355 347
187 181 199 181 198 213 192 245 141 157 143 156 134 143 177 177 162 153 174 166 165 168 164 166 169 172 170 167 163 165 157 154 136 142 112 77 75 67 41 38 38 36 37 16 20 19 12 2 353
204 198 194 188 189 206 202 243 139 178 130 189 146 156 178 180 187 187 183 163 168 167 168 168 172 172 170 168 164 163 154 143 140 110 105 102 85 89 76 68 63 43 44 33 28 26 26 14 348
243 198 206 177 193 192 190 223 180 166 172 203 165 159 179 188 191 204 163 158 162 165 170 168 170 172 170 169 168 157 137 138 120 113 103 96 92 90 88 70 75 63 47 39 35 32 27 17 358
259 203 206 203 126 358 198 204 235 164 182 184 158 158 172 177 195 182 156 159 163 163 165 166 169 171 169 172 177 158 141 130 121 108 91 80 85 85 86 77 72 71 58 46 37 34 24 23 13
350 350 162 185 186 283 309 217 203 207 182 158 137 229 165 173 177 156 139 155 160 159 164 156 147 155 166 152 143 142 137 123 112 99 93 85 86 80 78 75 69 65 54 45 33 33 28 17 13
275 173 359 347 163 201 223 212 207 197 189 160 173 188 181 158 141 129 126 127 119 111 123 133 137 148 152 153 159 157 139 126 120 114 103 93 86 83 76 70 61 51 43 39 35 30 35 33 26
144 155 191 19 184 119 204 218 208 184 206 178 173 175 174 151 162 130 129 109 113 121 123 129 131 131 129 146 151 145 129 126 125 115 100 87 80 75 67 55 49 43 36 34 36 31 37 45 39
136 138 94 79 104 185 187 222 256 185 195 176 180 179 174 150 143 120 107 110 113 118 116 116 115 107 118 124 130 134 132 129 122 114 105 93 79 64 56 47 40 41 42 36 34 39 41 45 43
124 115 107 150 160 142 280 187 263 14 356 174 174 165 142 131 118 112 115 120 117 114 113 111 116 107 117 120 119 124 126 128 123 119 113 109 91 68 51 42 36 40 52 44 40 44 43 43 40
184 169 113 6 156 110 358 200 256 86 44 3 56 113 116 117 120 128 124 120 115 110 114 120 118 112 116 118 115 117 120 119 115 110 105 94 80 63 51 47 52 52 60 52 45 48 48 40 41
160 186 312 101 280 107 202 253 282 145 104 73 94 105 109 114 125 117 117 112 109 121 122 122 120 116 113 111 111 108 110 111 110 111 98 75 45 49 62 60 64 62 65 59 48 48 46 37 36
235 132 84 333 146 184 177 262 228 158 156 147 129 124 114 105 108 109 110 116 118 123 124 124 121 115 113 109 108 109 106 99 81 47 47 80 96 100 100 93 78 67 64 59 50 46 41 35 40
90 133 122 25 353 164 146 216 330 193 169 155 148 135 124 123 121 121 120 129 129 129 130 126 122 121 120 123 124 118 108 133 248 203 158 151 142 132 116 101 95 71 62 58 51 46 41 38 34
287 333 160 175 218 111 126 33 349 316 139 141 143 134 134 135 131 128 131 132 133 134 133 132 134 133 132 133 140 159 157 161 164 168 159 168 156 131 121 120 101 88 74 60 48 43 37 33 26